Miscellaneous Local Product
Issued by NWS Hastings, NE

Home | Current Version | Previous Version | Text Only | Print | Product List | Glossary Off
Versions: 1 2 3 4 5 6 7 8 9 10 11 12 13 14 15 16 17 18 19 20 21 22 23 24 25 26 27 28 29 30 31 32 33 34 35 36 37 38 39 40 41 42 43 44 45 46 47 48 49 50

000
AXUS43 KGID 060302
MISGRI

GID CWA HOURLY WEATHER ROUNDUP
NATIONAL WEATHER SERVICE HASTINGS NE
1000 PM CDT SUN JUL 05 2015

NOTE: "FAIR" INDICATES FEW OR NO CLOUDS BELOW 12,000 FEET WITH NO
SIGNIFICANT WEATHER AND/OR OBSTRUCTIONS TO VISIBILITY.

...SOUTH CENTRAL NEBRASKA...

CITY           SKY/WX    TMP DP  RH WIND       PRES   REMARKS
GRAND ISLAND   CLOUDY    85  65  51 S14G22    29.75R
HASTINGS       MOCLDY    86  62  44 S13G20    29.75R
KEARNEY        CLOUDY    84  61  45 S13       29.76R
ORD            CLOUDY    86  69  56 SE10      29.70R HX  90
YORK           MOCLDY    84  73  70 S14G21    29.76R HX  91
AURORA         MOCLDY    83  67  57 S12       29.76R
LEXINGTON      CLOUDY    82  58  44 SW8       29.74R
HOLDREGE       CLOUDY    82  62  50 NW5       29.75R
HEBRON         PTCLDY    85  64  48 S12       29.76F

...NEBRASKA PANHANDLE...

CITY           SKY/WX    TMP DP  RH WIND       PRES   REMARKS
CHADRON        LGT RAIN  64  61  90 NE17      29.99R
ALLIANCE       LGT RAIN  64  62  93 N14       29.95R
SCOTTSBLUFF    CLOUDY    67 N/A N/A W13       29.96R
SIDNEY         LGT RAIN  66  63  90 N10       29.99R

...WESTERN AND NORTH CENTRAL NEBRASKA...

CITY           SKY/WX    TMP DP  RH WIND       PRES   REMARKS
VALENTINE      CLOUDY    69  66  90 N22G39    29.82S
AINSWORTH      TSTM      68  66  93 NW54G68   29.74F VSB 1/2
ONEILL         CLOUDY    82  77  85 E9        29.75R HX  90
BROKEN BOW     CLOUDY    85  63  47 SW9       29.72R
IMPERIAL       CLOUDY    75  61  61 NW12      29.82R
NORTH PLATTE   CLOUDY    81  61  50 W10       29.79R
MCCOOK         TSTM      76  66  71 NW16      29.82R

...EASTERN NEBRASKA...

CITY           SKY/WX    TMP DP  RH WIND       PRES   REMARKS
NORFOLK        CLOUDY    82  75  79 SE15      29.75R
SO SIOUX CITY  MOCLDY    82  72  71 SE12      29.75R
TEKAMAH        MOCLDY    82  75  79 SE12      29.76S
COLUMBUS       CLOUDY    82  72  69 SE8       29.75R
ALBION         CLOUDY    82  72  71 SE8       29.74R
OMAHA EPPLEY   MOCLDY    84  75  74 SE16      29.79R THUNDER HX  92
OFFUTT AFB     MOCLDY    82  75  77 SE15      29.78F
MILLARD        LGT RAIN  81  73  77 SE12G17   29.78R
LINCOLN        PTCLDY    85  70  60 SE16G23   29.79R
NEBRASKA CITY  MOCLDY    82  71  68 S13       29.81F
BEATRICE       CLEAR     85  72  65 SE17      29.77F HX  90
FALLS CITY     CLEAR     82  75  79 SE13      29.81F

...NORTHERN KANSAS...

CITY           SKY/WX    TMP DP  RH WIND       PRES   REMARKS
GOODLAND       TSTM      77  63  61 SW20G28   29.86R
HILL CITY      CLOUDY    89  60  37 S17G24    29.76F
NORTON         CLEAR     88  50  27 S13G20    29.75S
PHILLIPSBURG   CLEAR     93  57  29 SE10G16   29.75R HX  92
SMITH CENTER   CLEAR     88  61  40 S20       29.77S
HAYS           CLOUDY    84  61  45 S15       29.80S
RUSSELL        CLOUDY    85  64  49 S16       29.79S
CONCORDIA      PTCLDY    85  64  49 S13       29.78F
SALINA         CLOUDY    87  63  44 S9        29.81R
TOPEKA         CLEAR     85  72  65 SE13      29.86S HX  91



USA.gov is the U.S. government's official web portal to all federal, state and local government web resources and services.